Location: Edoum�
(0.9447°N, 10.6482°E)
Time: 23:08:43
(UTC+00:00)

Cosmos 494 Rocket - Pass Details

Date: 07 June 2020
Orbit: 743 x 770 km, 74.1° (Epoch: 10 July)

Event Time Altitude Azimuth Distance (km) Brightness Sun altitude
Rises 04:41:31 0° 201° (SSW) 3,232 6.8 -7.7°
Reaches altitude 10° 04:43:56 10° 205° (SSW) 2,306 6.0 -7.1°
Maximum altitude 04:49:02 54° 282° (WNW) 926 4.2 -5.9°
Drops below altitude 10° 04:54:08 10° 359° (N) 2,301 6.8 -4.7°
Sets 04:56:33 0° 4° (N) 3,224 7.6 -4.2°
